Tracking 30970 objects as of 3-Jul-2025
HD Live streaming from Space Station
objects crossing your sky now

ARIANE 42L R/B

Track ARIANE 42L R/B now!
10-day predictions


NORAD ID: 22655
Int'l Code: 1993-031C
Perigee: 281.6 km
Apogee: 27,146.8 km
Inclination: 5.0 °
Period: 472.1 minutes
Semi major axis: 20085 km
RCS: 22.5158 m2 (large)
Launch date: May 12, 1993
Source: France (FR)
Launch site: FRENCH GUIANA (FRGUI)

Note: This is a ROCKET BODY
Your satellite tracking list
Your tracking list is empty




NASA's NSSDC Master Catalog

Two Line Element Set (TLE):
1 22655U 93031C   25183.93177939  .00005927  00000-0  17121-2 0  9990
2 22655   4.9519 129.8129 6687824 292.3021  12.2625  3.04993082305444
Source of the keplerian elements: AFSPC